When you browse on this site, cookies collect data to enhance your experience and personalize the content and advertising you see.
Visit our Privacy Policy to learn more. By continuing to use the site, you agree to this use of cookies and data.
  • In Österreich
  • Länderverzeichnis
  • Für 7 Tage
  • Wassertemperatur
  • Wetterkarte
  • News
  • Widgets
  • user-avatar
    Anmelden

    Stündliche Wetter Peschaniki

    Heute, 31 Mai, Sonntag

    Zeit Temperatur Niederschläge Wind Luftdruck Luftfeuchtigkeit
    00:00 +13°C° 0 mm 5 m/S 738 mmHg 94%
    01:00 +12°C° 0 mm 5 m/S 738 mmHg 95%
    02:00 +11°C° 0 mm 4 m/S 739 mmHg 95%
    03:00 +11°C° 0 mm 4 m/S 739 mmHg 95%
    04:00 +11°C° 0 mm 4 m/S 739 mmHg 96%
    05:00 +10°C° 0 mm 4 m/S 740 mmHg 97%
    06:00 +11°C° 0 mm 4 m/S 740 mmHg 93%
    07:00 +13°C° 0 mm 4 m/S 741 mmHg 90%
    08:00 +14°C° 0 mm 4 m/S 741 mmHg 86%
    09:00 +14°C° 0.4 mm 4 m/S 741 mmHg 86%
    10:00 +15°C° 0.4 mm 4 m/S 742 mmHg 85%
    11:00 +15°C° 0.4 mm 4 m/S 742 mmHg 84%
    12:00 +17°C° 1.2 mm 4 m/S 743 mmHg 83%
    13:00 +17°C° 1.2 mm 4 m/S 743 mmHg 82%
    14:00 +17°C° 1.2 mm 5 m/S 743 mmHg 82%
    15:00 +16°C° 1 mm 5 m/S 744 mmHg 84%
    16:00 +16°C° 1 mm 6 m/S 744 mmHg 85%
    17:00 +15°C° 1 mm 6 m/S 744 mmHg 87%
    18:00 +14°C° 0.2 mm 6 m/S 745 mmHg 88%
    19:00 +13°C° 0.2 mm 6 m/S 745 mmHg 88%
    20:00 +11°C° 0.2 mm 6 m/S 746 mmHg 88%
    21:00 +11°C° 0 mm 6 m/S 746 mmHg 88%
    22:00 +10°C° 0 mm 5 m/S 746 mmHg 87%
    23:00 +9°C° 0 mm 5 m/S 747 mmHg 86%

    Morgen, 1 Juni, Montag

    Zeit Temperatur Niederschläge Wind Luftdruck Luftfeuchtigkeit
    00:00 +10°C° 0 mm 4 m/S 747 mmHg 88%
    01:00 +8°C° 0 mm 4 m/S 747 mmHg 90%
    02:00 +8°C° 0 mm 4 m/S 747 mmHg 91%
    03:00 +7°C° 0 mm 4 m/S 747 mmHg 89%
    04:00 +7°C° 0 mm 4 m/S 748 mmHg 87%
    05:00 +7°C° 0 mm 5 m/S 748 mmHg 85%
    06:00 +8°C° 0 mm 5 m/S 748 mmHg 77%
    07:00 +9°C° 0 mm 6 m/S 748 mmHg 69%
    08:00 +10°C° 0 mm 6 m/S 749 mmHg 61%
    09:00 +11°C° 0 mm 6 m/S 749 mmHg 60%
    10:00 +11°C° 0 mm 6 m/S 749 mmHg 58%
    11:00 +13°C° 0 mm 6 m/S 749 mmHg 56%
    12:00 +13°C° 0.1 mm 6 m/S 749 mmHg 56%
    13:00 +13°C° 0.1 mm 6 m/S 749 mmHg 55%
    14:00 +13°C° 0.1 mm 6 m/S 748 mmHg 55%
    15:00 +13°C° 0.1 mm 6 m/S 748 mmHg 57%
    16:00 +13°C° 0.1 mm 6 m/S 748 mmHg 60%
    17:00 +13°C° 0.1 mm 6 m/S 748 mmHg 62%
    18:00 +10°C° 0.1 mm 5 m/S 748 mmHg 69%
    19:00 +10°C° 0.1 mm 4 m/S 748 mmHg 75%
    20:00 +9°C° 0.1 mm 3 m/S 748 mmHg 82%
    21:00 +7°C° 0 mm 4 m/S 748 mmHg 85%
    22:00 +6°C° 0 mm 4 m/S 748 mmHg 88%
    23:00 +6°C° 0 mm 4 m/S 748 mmHg 91%

    übermorgen, 2 Juni, Dienstag

    Zeit Temperatur Niederschläge Wind Luftdruck Luftfeuchtigkeit
    00:00 +6°C° 0 mm 4 m/S 747 mmHg 90%
    01:00 +6°C° 0 mm 4 m/S 747 mmHg 90%
    02:00 +6°C° 0 mm 4 m/S 747 mmHg 90%
    03:00 +6°C° 0 mm 4 m/S 746 mmHg 90%
    04:00 +5°C° 0 mm 4 m/S 746 mmHg 90%
    05:00 +5°C° 0 mm 5 m/S 745 mmHg 91%
    06:00 +6°C° 0 mm 5 m/S 745 mmHg 87%
    07:00 +7°C° 0 mm 6 m/S 745 mmHg 84%
    08:00 +8°C° 0 mm 6 m/S 744 mmHg 81%
    09:00 +8°C° 0.6 mm 6 m/S 744 mmHg 85%
    10:00 +7°C° 0.6 mm 6 m/S 743 mmHg 89%
    11:00 +7°C° 0.6 mm 6 m/S 743 mmHg 93%
    12:00 +7°C° 0.6 mm 6 m/S 742 mmHg 93%
    13:00 +7°C° 0.6 mm 6 m/S 742 mmHg 93%
    14:00 +7°C° 0.6 mm 6 m/S 742 mmHg 93%
    15:00 +7°C° 0.4 mm 6 m/S 741 mmHg 93%
    16:00 +7°C° 0.4 mm 6 m/S 741 mmHg 93%
    17:00 +7°C° 0.4 mm 6 m/S 740 mmHg 93%
    18:00 +7°C° 0.1 mm 5 m/S 740 mmHg 94%
    19:00 +8°C° 0.1 mm 5 m/S 740 mmHg 95%
    20:00 +8°C° 0.1 mm 4 m/S 739 mmHg 96%
    21:00 +8°C° 0 mm 4 m/S 739 mmHg 96%
    22:00 +9°C° 0 mm 3 m/S 739 mmHg 97%
    23:00 +9°C° 0 mm 3 m/S 739 mmHg 97%

    3 Juni, Mittwoch

    Zeit Temperatur Niederschläge Wind Luftdruck Luftfeuchtigkeit
    00:00 +8°C° 0 mm 3 m/S 739 mmHg 97%
    01:00 +8°C° 0 mm 3 m/S 738 mmHg 98%
    02:00 +7°C° 0 mm 3 m/S 738 mmHg 98%
    03:00 +7°C° 0 mm 3 m/S 738 mmHg 98%
    04:00 +7°C° 0 mm 3 m/S 738 mmHg 98%
    05:00 +7°C° 0 mm 3 m/S 738 mmHg 97%
    06:00 +8°C° 0 mm 3 m/S 738 mmHg 96%
    07:00 +8°C° 0 mm 3 m/S 738 mmHg 94%
    08:00 +9°C° 0 mm 3 m/S 738 mmHg 92%
    09:00 +10°C° 0.4 mm 4 m/S 739 mmHg 90%
    10:00 +10°C° 0.4 mm 4 m/S 739 mmHg 88%
    11:00 +10°C° 0.4 mm 5 m/S 739 mmHg 87%
    12:00 +12°C° 0.4 mm 4 m/S 739 mmHg 84%
    13:00 +12°C° 0.4 mm 4 m/S 739 mmHg 82%
    14:00 +13°C° 0.4 mm 4 m/S 739 mmHg 79%
    15:00 +13°C° 0.7 mm 3 m/S 738 mmHg 80%
    16:00 +13°C° 0.7 mm 3 m/S 738 mmHg 81%
    17:00 +14°C° 0.7 mm 3 m/S 738 mmHg 82%
    18:00 +12°C° 0.5 mm 3 m/S 738 mmHg 86%
    19:00 +12°C° 0.5 mm 2 m/S 738 mmHg 89%
    20:00 +10°C° 0.5 mm 2 m/S 738 mmHg 93%
    21:00 +9°C° 0 mm 2 m/S 739 mmHg 94%
    22:00 +9°C° 0 mm 2 m/S 739 mmHg 95%
    23:00 +9°C° 0 mm 1 m/S 739 mmHg 96%

    4 Juni, Donnerstag

    Zeit Temperatur Niederschläge Wind Luftdruck Luftfeuchtigkeit
    00:00 +8°C° 0 mm 1 m/S 739 mmHg 97%
    01:00 +8°C° 0 mm 1 m/S 739 mmHg 97%
    02:00 +7°C° 0 mm 1 m/S 739 mmHg 98%
    03:00 +8°C° 0.1 mm 1 m/S 740 mmHg 98%
    04:00 +8°C° 0.1 mm 1 m/S 740 mmHg 98%
    05:00 +8°C° 0.1 mm 1 m/S 740 mmHg 98%
    06:00 +9°C° 0.1 mm 1 m/S 740 mmHg 97%
    07:00 +10°C° 0.1 mm 1 m/S 741 mmHg 96%
    08:00 +10°C° 0.1 mm 1 m/S 741 mmHg 95%
    09:00 +11°C° 0 mm 1 m/S 741 mmHg 94%
    10:00 +11°C° 0 mm 1 m/S 741 mmHg 93%
    11:00 +11°C° 0 mm 1 m/S 741 mmHg 92%
    12:00 +12°C° 0.2 mm 1 m/S 741 mmHg 89%
    13:00 +13°C° 0.2 mm 2 m/S 741 mmHg 87%
    14:00 +13°C° 0.2 mm 2 m/S 741 mmHg 84%
    15:00 +14°C° 0.1 mm 2 m/S 741 mmHg 80%
    16:00 +15°C° 0.1 mm 2 m/S 741 mmHg 77%
    17:00 +15°C° 0.1 mm 2 m/S 741 mmHg 74%
    18:00 +14°C° 0 mm 2 m/S 741 mmHg 77%
    19:00 +13°C° 0 mm 2 m/S 741 mmHg 81%
    20:00 +13°C° 0 mm 1 m/S 741 mmHg 85%
    21:00 +10°C° 0 mm 2 m/S 741 mmHg 88%
    22:00 +9°C° 0 mm 2 m/S 741 mmHg 91%
    23:00 +8°C° 0 mm 2 m/S 741 mmHg 94%

    5 Juni, Freitag

    Zeit Temperatur Niederschläge Wind Luftdruck Luftfeuchtigkeit
    00:00 +8°C° 0 mm 2 m/S 741 mmHg 95%
    01:00 +8°C° 0 mm 2 m/S 741 mmHg 95%
    02:00 +7°C° 0 mm 2 m/S 741 mmHg 96%
    03:00 +7°C° 0 mm 2 m/S 741 mmHg 96%
    04:00 +7°C° 0 mm 2 m/S 741 mmHg 96%
    05:00 +7°C° 0 mm 2 m/S 741 mmHg 96%
    06:00 +9°C° 0 mm 2 m/S 741 mmHg 90%
    07:00 +13°C° 0 mm 2 m/S 741 mmHg 84%
    08:00 +15°C° 0 mm 2 m/S 742 mmHg 79%
    09:00 +16°C° 0.2 mm 2 m/S 742 mmHg 77%
    10:00 +17°C° 0.2 mm 3 m/S 742 mmHg 76%
    11:00 +18°C° 0.2 mm 3 m/S 742 mmHg 74%
    12:00 +18°C° 0.7 mm 3 m/S 741 mmHg 73%
    13:00 +19°C° 0.7 mm 3 m/S 741 mmHg 72%
    14:00 +20°C° 0.7 mm 3 m/S 741 mmHg 71%
    15:00 +20°C° 0.2 mm 3 m/S 741 mmHg 70%
    16:00 +20°C° 0.2 mm 3 m/S 741 mmHg 70%
    17:00 +20°C° 0.2 mm 3 m/S 741 mmHg 69%
    18:00 +18°C° 0.1 mm 2 m/S 741 mmHg 75%
    19:00 +18°C° 0.1 mm 1 m/S 741 mmHg 81%
    20:00 +15°C° 0.1 mm 1 m/S 741 mmHg 87%
    21:00 +14°C° 0 mm 1 m/S 742 mmHg 89%
    22:00 +14°C° 0 mm 1 m/S 742 mmHg 90%
    23:00 +13°C° 0 mm 1 m/S 742 mmHg 91%
    Mehr zeigen